H1 CPF 2 NER 2021 7 7 9 188 01 glonass139 H2 1808601 9139 43687 2021 7 7 0 0 0 2021 7 10 23 45 0 900 1 1 0 0 0 1 H9 10 0 59402 0.00000 0 21543279.378 -13623538.541 -1032803.264 10 0 59402 900.00000 0 21411646.504 -13702305.449 2173192.801 10 0 59402 1800.00000 0 20961673.433 -13535416.331 5336997.038 10 0 59402 2700.00000 0 20235006.262 -13086384.129 8397220.268 10 0 59402 3600.00000 0 19281587.447 -12329004.677 11294525.876 10 0 59402 4500.00000 0 18157452.841 -11248690.836 13972775.518 10 0 59402 5400.00000 0 16922295.055 -9843326.467 16380109.517 10 0 59402 6300.00000 0 15636895.857 -8123604.228 18469941.718 10 0 59402 7200.00000 0 14360535.281 -6112833.004 20201850.406 10 0 59402 8100.00000 0 13148485.552 -3846222.645 21542349.253 10 0 59402 9000.00000 0 12049693.923 -1369675.177 22465524.655 10 0 59402 9900.00000 0 11104750.300 1261868.102 22953528.265 10 0 59402 10800.00000 0 10344223.471 3986456.226 22996916.286 10 0 59402 11700.00000 0 9787434.364 6737452.232 22594829.667 10 0 59402 12600.00000 0 9441716.706 9446056.138 21755012.045 10 0 59402 13500.00000 0 9302195.425 12043924.465 20493665.001 10 0 59402 14400.00000 0 9352091.770 14465779.422 18835142.907 10 0 59402 15300.00000 0 9563542.541 16651900.926 16811492.361 10 0 59402 16200.00000 0 9898899.478 18550399.244 14461843.981 10 0 59402 17100.00000 0 10312454.873 20119174.579 11831666.980 10 0 59402 18000.00000 0 10752521.573 21327482.383 8971899.697 10 0 59402 18900.00000 0 11163780.360 22157039.176 5937971.759 10 0 59402 19800.00000 0 11489796.155 22602622.443 2788735.861 10 0 59402 20700.00000 0 11675596.842 22672139.002 -414670.600 10 0 59402 21600.00000 0 11670205.432 22386158.509 -3610012.176 10 0 59402 22500.00000 0 11429017.676 21776931.184 -6735167.160 10 0 59402 23400.00000 0 10915923.387 20886930.716 -9729340.373 10 0 59402 24300.00000 0 10105080.241 19766983.510 -12534252.755 10 0 59402 25200.00000 0 8982263.231 18474063.134 -15095283.757 10 0 59402 26100.00000 0 7545730.879 17068843.130 -17362543.383 10 0 59402 27000.00000 0 5806569.683 15613111.773 -19291852.218 10 0 59402 27900.00000 0 3788500.361 14167158.168 -20845609.658 10 0 59402 28800.00000 0 1527152.366 12787240.374 -21993532.839 10 0 59402 29700.00000 0 -931164.378 11523242.591 -22713251.518 10 0 59402 30600.00000 0 -3531140.261 10416620.361 -22990747.090 10 0 59402 31500.00000 0 -6210529.783 9498720.365 -22820627.072 10 0 59402 32400.00000 0 -8902512.742 8789545.396 -22206229.741 10 0 59402 33300.00000 0 -11538254.634 8297016.034 -21159556.933 10 0 59402 34200.00000 0 -14049559.499 8016759.521 -19701036.458 10 0 59402 35100.00000 0 -16371504.708 7932433.753 -17859118.949 10 0 59402 36000.00000 0 -18444947.842 8016571.702 -15669717.221 10 0 59402 36900.00000 0 -20218801.142 8231909.393 -13175499.417 10 0 59402 37800.00000 0 -21651978.924 8533140.078 -10425050.153 10 0 59402 38700.00000 0 -22714937.154 8869019.191 -7471916.471 10 0 59402 39600.00000 0 -23390741.590 9184729.830 -4373557.941 10 0 59402 40500.00000 0 -23675620.961 9424407.600 -1190221.986 10 0 59402 41400.00000 0 -23578983.421 9533717.058 2016232.947 10 0 59402 42300.00000 0 -23122897.153 9462370.056 5183542.736 10 0 59402 43200.00000 0 -22341058.595 9166479.033 8250247.541 10 0 59402 44100.00000 0 -21277293.206 8610645.562 11156882.584 10 0 59402 45000.00000 0 -19983653.022 7769695.975 13847126.542 10 0 59402 45900.00000 0 -18518191.920 6629990.945 16268885.668 10 0 59402 46800.00000 0 -16942512.408 5190253.982 18375293.285 10 0 59402 47700.00000 0 -15319186.890 3461884.025 20125606.188 10 0 59402 48600.00000 0 -13709160.952 1468738.757 21485981.811 10 0 59402 49500.00000 0 -12169246.434 -753602.887 22430122.367 10 0 59402 50400.00000 0 -10749807.955 -3159069.058 22939774.688 10 0 59402 51300.00000 0 -9492738.152 -5692764.307 23005077.176 10 0 59402 52200.00000 0 -8429804.756 -8293011.961 22624747.876 10 0 59402 53100.00000 0 -7581437.287 -10893686.403 21806110.392 10 0 59402 54000.00000 0 -6956002.971 -13426740.267 20564957.088 10 0 59402 54900.00000 0 -6549601.410 -15824823.456 18925251.689 10 0 59402 55800.00000 0 -6346386.271 -18023886.730 16918676.178 10 0 59402 56700.00000 0 -6319400.474 -19965663.047 14584029.619 10 0 59402 57600.00000 0 -6431890.105 -21599924.318 11966489.181 10 0 59402 58500.00000 0 -6639042.277 -22886420.033 9116746.433 10 0 59402 59400.00000 0 -6890074.235 -23796416.927 6090034.445 10 0 59402 60300.00000 0 -7130585.988 -24313775.083 2945063.565 10 0 59402 61200.00000 0 -7305077.268 -24435514.790 -257113.976 10 0 59402 62100.00000 0 -7359522.239 -24171849.700 -3454288.878 10 0 59402 63000.00000 0 -7243892.425 -23545684.128 -6584305.877 10 0 59402 63900.00000 0 -6914520.128 -22591594.935 -9586277.064 10 0 59402 64800.00000 0 -6336200.968 -21354340.337 -12401773.163 10 0 59402 65700.00000 0 -5483944.927 -19886958.096 -14975968.797 10 0 59402 66600.00000 0 -4344300.065 -18248533.084 -17258718.477 10 0 59402 67500.00000 0 -2916191.049 -16501728.366 -19205541.612 10 0 59402 68400.00000 0 -1211235.194 -14710183.943 -20778496.629 10 0 59402 69300.00000 0 746479.073 -12935892.963 -21946926.592 10 0 59402 70200.00000 0 2921143.659 -11236666.047 -22688061.443 10 0 59402 71100.00000 0 5266482.009 -9663790.503 -22987464.890 10 0 59402 72000.00000 0 7727448.678 -8259982.842 -22839317.133 10 0 59402 72900.00000 0 10242306.891 -7057720.413 -22246527.922 10 0 59402 73800.00000 0 12744997.809 -6078021.731 -21220677.795 10 0 59402 74700.00000 0 15167702.615 -5329726.070 -19781788.793 10 0 59402 75600.00000 0 17443490.561 -4809301.531 -17957929.271 10 0 59402 76500.00000 0 19508942.354 -4501188.403 -15784660.745 10 0 59402 77400.00000 0 21306639.172 -4378661.916 -13304337.895 10 0 59402 78300.00000 0 22787413.401 -4405176.421 -10565275.803 10 0 59402 79200.00000 0 23912267.196 -4536132.651 -7620801.139 10 0 59402 80100.00000 0 24653879.011 -4720991.831 -4528206.487 10 0 59402 81000.00000 0 24997635.777 -4905645.819 -1347628.871 10 0 59402 81900.00000 0 24942148.521 -5034941.761 1859125.036 10 0 59402 82800.00000 0 24499231.024 -5055253.467 5029783.367 10 0 59402 83700.00000 0 23693343.839 -4916990.032 8102819.313 10 0 59402 84600.00000 0 22560528.381 -4576935.181 11018643.368 10 0 59402 85500.00000 0 21146877.098 -4000318.401 13720754.310 10 0 59403 0.00000 0 19506604.909 -3162530.509 16156826.922 10 0 59403 900.00000 0 17699803.255 -2050410.999 18279716.290 10 0 59403 1800.00000 0 15789971.096 -663054.458 20048359.420 10 0 59403 2700.00000 0 13841425.901 987900.124 21428558.770 10 0 59403 3600.00000 0 11916701.655 2878507.423 22393633.211 10 0 59403 4500.00000 0 10074041.795 4973273.384 22924925.161 10 0 59403 5400.00000 0 8365089.998 7226401.196 23012155.198 10 0 59403 6300.00000 0 6832873.545 9583475.289 22653618.025 10 0 59403 7200.00000 0 5510161.909 11983514.829 21856216.370 10 0 59403 8100.00000 0 4418267.539 14361313.135 20635332.144 10 0 59403 9000.00000 0 3566337.817 16649967.572 19014536.831 10 0 59403 9900.00000 0 2951166.993 18783496.346 17025145.902 10 0 59403 10800.00000 0 2557535.538 20699434.773 14705624.688 10 0 59403 11700.00000 0 2359062.563 22341303.941 12100855.920 10 0 59403 12600.00000 0 2319535.701 23660849.363 9261281.824 10 0 59403 13500.00000 0 2394662.755 24619956.324 6241936.197 10 0 59403 14400.00000 0 2534171.570 25192161.504 3101384.234 10 0 59403 15300.00000 0 2684169.670 25363696.922 -99409.849 10 0 59403 16200.00000 0 2789663.826 25134021.519 -3298265.723 10 0 59403 17100.00000 0 2797132.562 24515817.116 -6432997.302 10 0 59403 18000.00000 0 2657041.922 23534447.869 -9442626.510 10 0 59403 18900.00000 0 2326196.900 22226905.158 -12268576.208 10 0 59403 19800.00000 0 1769827.509 20640281.571 -14855818.288 10 0 59403 20700.00000 0 963319.619 18829837.805 -17153953.614 10 0 59403 21600.00000 0 -106484.431 16856743.563 -19118202.005 10 0 59403 22500.00000 0 -1440472.221 14785587.420 -20710282.282 10 0 59403 23400.00000 0 -3026970.721 12681760.424 -21899164.591 10 0 59403 24300.00000 0 -4841992.726 10608823.502 -22661680.003 10 0 59403 25200.00000 0 -6850011.373 8625969.225 -22982975.264 10 0 59403 26100.00000 0 -9005231.356 6785684.477 -22856803.710 10 0 59403 27000.00000 0 -11253304.429 5131711.827 -22285646.696 10 0 59403 27900.00000 0 -13533417.985 3697394.578 -21280663.239 10 0 59403 28800.00000 0 -15780669.534 2504474.264 -19861468.974 10 0 59403 29700.00000 0 -17928627.847 1562389.913 -18055748.941 10 0 59403 30600.00000 0 -19911973.625 868107.214 -15898711.933 10 0 59403 31500.00000 0 -21669108.943 406483.211 -13432397.419 10 0 59403 32400.00000 0 -23144626.202 151149.403 -10704848.942 10 0 59403 33300.00000 0 -24291533.155 65874.183 -7769170.591 10 0 59403 34200.00000 0 -25073140.901 106345.332 -4682485.620 10 0 59403 35100.00000 0 -25464536.098 222295.490 -1504818.183 10 0 59403 36000.00000 0 -25453576.307 359879.225 1702079.379 10 0 59403 36900.00000 0 -25041367.564 464199.869 4875930.100 10 0 59403 37800.00000 0 -24242205.246 481878.277 7955142.917 10 0 59403 38700.00000 0 -23082981.837 363554.218 10880006.348 10 0 59403 39600.00000 0 -21602087.566 66214.379 13593842.019 10 0 59403 40500.00000 0 -19847850.944 -444751.349 16044096.010 10 0 59403 41400.00000 0 -17876585.092 -1193851.934 18183347.515 10 0 59403 42300.00000 0 -15750321.890 -2194226.898 19970216.109 10 0 59403 43200.00000 0 -13534328.375 -3446860.858 21370151.276 10 0 59403 44100.00000 0 -11294508.318 -4940314.025 22356090.155 10 0 59403 45000.00000 0 -9094796.290 -6650980.284 22908971.967 10 0 59403 45900.00000 0 -6994651.303 -8543862.875 23018100.274 10 0 59403 46800.00000 0 -5046752.724 -10573836.425 22681346.844 10 0 59403 47700.00000 0 -3294992.735 -12687344.112 21905193.551 10 0 59403 48600.00000 0 -1772847.306 -14824460.924 20704611.509 10 0 59403 49500.00000 0 -502192.111 -16921238.885 19102779.279 10 0 59403 50400.00000 0 507388.254 -18912238.183 17130644.780 10 0 59403 51300.00000 0 1258769.695 -20733140.259 14826338.263 10 0 59403 52200.00000 0 1766930.046 -22323335.071 12234446.347 10 0 59403 53100.00000 0 2058077.599 -23628375.163 9405159.963 10 0 59403 54000.00000 0 2168303.335 -24602194.267 6393311.432 10 0 59403 54900.00000 0 2141813.417 -25208997.314 3257318.392 10 0 59403 55800.00000 0 2028816.358 -25424741.990 58054.475 10 0 59403 56700.00000 0 1883154.121 -25238148.681 -3142331.659 10 0 59403 57600.00000 0 1759777.626 -24651195.218 -6281625.894 10 0 59403 58500.00000 0 1712174.060 -23679074.363 -9298762.857 10 0 59403 59400.00000 0 1789855.815 -22349614.639 -12135020.454 10 0 59403 60300.00000 0 2036018.599 -20702187.810 -14735170.755 10 0 59403 61200.00000 0 2485469.267 -18786148.179 -17048563.809 10 0 59403 62100.00000 0 3162912.612 -16658868.724 -19030122.539 10 0 59403 63000.00000 0 4081671.258 -14383456.235 -20641228.617 10 0 59403 63900.00000 0 5242894.286 -12026241.280 -21850481.412 10 0 59403 64800.00000 0 6635289.565 -9654148.240 -22634314.884 10 0 59403 65700.00000 0 8235392.483 -7332055.624 -22977460.154 10 0 59403 66600.00000 0 10008360.884 -5120257.273 -22873244.594 10 0 59403 67500.00000 0 11909263.779 -3072130.513 -22323721.639 10 0 59403 68400.00000 0 13884810.389 -1232108.465 -21339628.830 10 0 59403 69300.00000 0 15875447.307 365959.198 -19940175.040 10 0 59403 70200.00000 0 17817735.999 1699989.379 -18152661.215 10 0 59403 71100.00000 0 19646910.927 2760344.285 -16011942.228 10 0 59403 72000.00000 0 21299510.766 3549978.728 -13559740.686 10 0 59403 72900.00000 0 22715972.172 4084051.690 -10843826.485 10 0 59403 73800.00000 0 23843077.062 4389020.423 -7917078.570 10 0 59403 74700.00000 0 24636150.577 4501257.235 -4836447.900 10 0 59403 75600.00000 0 25060917.551 4465249.323 -1661842.466 10 0 59403 76500.00000 0 25094939.857 4331459.500 1545043.236 10 0 59403 77400.00000 0 24728574.776 4153939.747 4721930.743 10 0 59403 78300.00000 0 23965414.908 3987799.793 7807168.311 10 0 59403 79200.00000 0 22822192.012 3886638.574 10740925.898 10 0 59403 80100.00000 0 21328149.702 3900047.662 13466351.154 10 0 59403 81000.00000 0 19523912.075 4071292.214 15930664.273 10 0 59403 81900.00000 0 17459896.185 4435267.212 18086171.159 10 0 59403 82800.00000 0 15194334.978 5016814.786 19891176.062 10 0 59403 83700.00000 0 12790993.095 5829473.156 21310777.246 10 0 59403 84600.00000 0 10316670.104 6874709.535 22317531.484 10 0 59403 85500.00000 0 7838594.228 8141669.224 22891975.753 10 0 59404 0.00000 0 5421813.551 9607451.734 23022997.134 10 0 59404 900.00000 0 3126691.569 11237903.499 22708044.512 10 0 59404 1800.00000 0 1006609.224 12988894.239 21953178.524 10 0 59404 2700.00000 0 -894032.048 14808026.504 20772958.599 10 0 59404 3600.00000 0 -2541425.970 16636707.432 19190169.044 10 0 59404 4500.00000 0 -3913528.727 18412498.599 17235388.490 10 0 59404 5400.00000 0 -5000730.847 20071647.142 14946410.001 10 0 59404 6300.00000 0 -5806006.115 21551693.790 12367521.710 10 0 59404 7200.00000 0 -6344531.591 22794049.560 9548660.644 10 0 59404 8100.00000 0 -6642794.851 23746433.680 6544454.897 10 0 59404 9000.00000 0 -6737225.900 24365070.485 3413171.692 10 0 59404 9900.00000 0 -6672411.271 24616552.487 215591.168 10 0 59404 10800.00000 0 -6498965.689 24479290.403 -2986172.570 10 0 59404 11700.00000 0 -6271151.374 23944487.929 -6129880.213 10 0 59404 12600.00000 0 -6044346.071 23016598.774 -9154381.787 10 0 59404 13500.00000 0 -5872467.693 21713245.312 -12000812.770 10 0 59404 14400.00000 0 -5805465.537 20064600.848 -14613747.702 10 0 59404 15300.00000 0 -5886985.488 18112260.333 -16942287.865 10 0 59404 16200.00000 0 -6152309.351 15907645.998 -18941061.079 10 0 59404 17100.00000 0 -6626656.935 13510014.180 -20571113.412 10 0 59404 18000.00000 0 -7323924.050 10984146.525 -21800674.769 10 0 59404 18900.00000 0 -8245911.094 8397822.074 -22605783.085 10 0 59404 19800.00000 0 -9382076.031 5819175.901 -22970754.701 10 0 59404 20700.00000 0 -10709823.163 3314054.787 -22888491.599 10 0 59404 21600.00000 0 -12195316.427 943480.276 -22360619.549 10 0 59404 22500.00000 0 -13794783.594 -1238675.155 -21397454.514 10 0 59404 23400.00000 0 -15456256.833 -3187702.156 -20017798.111 10 0 59404 24300.00000 0 -17121676.636 -4869675.403 -18248566.298 10 0 59404 25200.00000 0 -18729270.623 -6262614.649 -16124258.745 10 0 59404 26100.00000 0 -20216106.952 -7357138.643 -13686279.568 10 0 59404 27000.00000 0 -21520714.744 -8156586.230 -10982123.089 10 0 59404 27900.00000 0 -22585660.997 -8676601.501 -8064440.953 10 0 59404 28800.00000 0 -23359975.327 -8944202.429 -4990009.468 10 0 59404 29700.00000 0 -23801320.417 -8996374.386 -1818617.949 10 0 59404 30600.00000 0 -23877816.924 -8878249.847 1388099.600 10 0 59404 31500.00000 0 -23569446.292 -8640952.906 4567865.990 10 0 59404 32400.00000 0 -22868972.977 -8339201.207 7658971.648 10 0 59404 33300.00000 0 -21782347.876 -8028767.704 10601470.893 10 0 59404 34200.00000 0 -20328576.687 -7763910.207 13338340.302 10 0 59404 35100.00000 0 -18539059.328 -7594877.549 15816577.016 10 0 59404 36000.00000 0 -16456428.484 -7565597.520 17988216.303 10 0 59404 36900.00000 0 -14132936.067 -7711643.699 19811249.493 10 0 59404 37800.00000 0 -11628454.742 -8058566.248 21250425.687 10 0 59404 38700.00000 0 -9008177.234 -8620656.423 22277922.969 10 0 59404 39600.00000 0 -6340108.210 -9400196.278 22873877.324 10 0 59404 40500.00000 0 -3692451.692 -10387225.006 23026760.159 10 0 59404 41400.00000 0 -1131000.813 -11559831.992 22733597.920 10 0 59404 42300.00000 0 1283363.346 -12884964.992 22000030.002 10 0 59404 43200.00000 0 3496961.886 -14319720.710 20840203.847 10 0 59404 44100.00000 0 5465303.748 -15813065.146 19276508.837 10 0 59404 45000.00000 0 7154685.727 -17307913.268 17339153.323 10 0 59404 45900.00000 0 8543341.470 -18743482.517 15065591.867 10 0 59404 46800.00000 0 9622092.366 -20057822.970 12499812.467 10 0 59404 47700.00000 0 10394473.577 -21190419.172 9691496.278 10 0 59404 48600.00000 0 10876330.201 -22084755.130 6695064.898 10 0 59404 49500.00000 0 11094900.538 -22690734.899 3568632.612 10 0 59404 50400.00000 0 11087424.920 -22966856.617 372883.347 10 0 59404 51300.00000 0 10899338.667 -22882047.680 -2830106.217 10 0 59404 52200.00000 0 10582125.528 -22417082.566 -5978074.502 10 0 59404 53100.00000 0 10190922.504 -21565522.052 -9009789.884 10 0 59404 54000.00000 0 9781977.877 -20334132.671 -11866248.324 10 0 59404 54900.00000 0 9410070.732 -18742767.016 -14491829.666 10 0 59404 55800.00000 0 9126002.110 -16823708.474 -16835389.138 10 0 59404 56700.00000 0 8974265.081 -14620506.564 -18851261.985 10 0 59404 57600.00000 0 8990993.472 -12186350.713 -20500160.953 10 0 59404 58500.00000 0 9202277.176 -9582049.922 -21749948.455 10 0 59404 59400.00000 0 9622916.345 -6873702.430 -22576268.016 10 0 59404 60300.00000 0 10255668.105 -4130152.464 -22963022.412 10 0 59404 61200.00000 0 11091018.373 -1420340.290 -22902689.052 10 0 59404 62100.00000 0 12107489.085 1189343.993 -22396466.450 10 0 59404 63000.00000 0 13272468.303 3637592.688 -21454249.018 10 0 59404 63900.00000 0 14543528.442 5870493.352 -20094430.761 10 0 59404 64800.00000 0 15870177.099 7843526.338 -18343541.929 10 0 59404 65700.00000 0 17195966.603 9523164.432 -16235725.888 10 0 59404 66600.00000 0 18460873.055 10888008.822 -13812066.774 10 0 59404 67500.00000 0 19603844.262 11929415.335 -11119781.449 10 0 59404 68400.00000 0 20565408.745 12651586.477 -8211291.967 10 0 59404 69300.00000 0 21290235.433 13071127.337 -5143197.326 10 0 59404 70200.00000 0 21729535.859 13216086.146 -1975165.205 10 0 59404 71100.00000 0 21843207.448 13124522.027 1231234.081 10 0 59404 72000.00000 0 21601627.580 12842662.214 4413727.929 10 0 59404 72900.00000 0 20987023.104 12422728.259 7510552.267 10 0 59404 73800.00000 0 19994357.973 11920524.326 10461649.015 10 0 59404 74700.00000 0 18631702.136 11392890.296 13209826.753 10 0 59404 75600.00000 0 16920066.615 10895127.662 15701862.409 10 0 59404 76500.00000 0 14892711.943 10478506.810 17889523.198 10 0 59404 77400.00000 0 12593959.016 10187960.388 19730489.807 10 0 59404 78300.00000 0 10077551.804 10060059.278 21189164.142 10 0 59404 79200.00000 0 7404639.548 10121355.551 22237347.215 10 0 59404 80100.00000 0 4641461.524 10387161.314 22854775.265 10 0 59404 81000.00000 0 1856829.313 10860814.195 23029504.860 10 0 59404 81900.00000 0 -880490.582 11533460.015 22758140.364 10 0 59404 82800.00000 0 -3504386.836 12384361.935 22045899.822 10 0 59404 83700.00000 0 -5953899.719 13381723.698 20906518.049 10 0 59404 84600.00000 0 -8175502.001 14483993.423 19361988.372 10 0 59404 85500.00000 0 -10125071.113 15641594.554 17442147.257 10 0 59405 0.00000 0 -11769471.888 16799012.726 15184108.808 10 0 59405 900.00000 0 -13087684.791 17897152.372 12631558.429 10 0 59405 1800.00000 0 -14071433.578 18875865.362 9833918.890 10 0 59405 2700.00000 0 -14725285.405 19676545.829 6845402.548 10 0 59405 3600.00000 0 -15066220.576 20244682.984 3723967.934 10 0 59405 4500.00000 0 -15122688.783 20532263.714 530199.919 10 0 59405 5400.00000 0 -14933191.973 20499923.377 -2673865.065 10 0 59405 6300.00000 0 -14544453.332 20118752.882 -5825945.950 10 0 59405 7200.00000 0 -14009249.756 19371684.389 -8864732.153 10 0 59405 8100.00000 0 -13383999.706 18254395.499 -11731082.673 10 0 59405 9000.00000 0 -12726208.911 16775691.958 -14369185.039 10 0 59405 9900.00000 0 -12091882.667 14957351.032 -16727650.578 10 0 59405 10800.00000 0 -11533015.041 12833430.436 -18760523.870 10 0 59405 11700.00000 0 -11095262.103 10449070.436 -20428185.986 10 0 59405 12600.00000 0 -10815898.483 7858838.260 -21698133.234 10 0 59405 13500.00000 0 -10722144.501 5124683.316 -22545615.848 10 0 59405 14400.00000 0 -10829935.262 2313588.111 -22954123.898 10 0 59405 15300.00000 0 -11143184.292 -504987.240 -22915710.785 10 0 59405 16200.00000 0 -11653573.162 -3261760.549 -22431148.036 10 0 59405 17100.00000 0 -12340876.184 -5890272.549 -21509908.437 10 0 59405 18000.00000 0 -13173806.452 -8329411.199 -20169977.968 10 0 59405 18900.00000 0 -14111347.358 -10525710.419 -18437500.385 10 0 59405 19800.00000 0 -15104513.046 -12435327.969 -16346261.620 10 0 59405 20700.00000 0 -16098463.046 -14025620.614 -13937024.389 10 0 59405 21600.00000 0 -17034881.250 -15276251.990 -11256726.371 10 0 59405 22500.00000 0 -17854518.236 -16179788.232 -8357558.087 10 0 59405 23400.00000 0 -18499788.981 -16741758.121 -5295939.096 10 0 59405 24300.00000 0 -18917315.819 -16980177.208 -2131413.144 10 0 59405 25200.00000 0 -19060308.880 -16924557.956 1074515.579 10 0 59405 26100.00000 0 -18890683.376 -16614449.576 4259581.633 10 0 59405 27000.00000 0 -18380824.388 -16097570.915 7361969.150 10 0 59405 27900.00000 0 -17514924.917 -15427616.686 10321510.445 10 0 59405 28800.00000 0 -16289841.124 -14661830.644 13080848.950 10 0 59405 29700.00000 0 -14715429.073 -13858448.757 15586544.203 10 0 59405 30600.00000 0 -12814349.007 -13074120.276 17790098.078 10 0 59405 31500.00000 0 -10621345.397 -12361415.068 19648883.146 10 0 59405 32400.00000 0 -8182032.598 -11766521.463 21126956.358 10 0 59405 33300.00000 0 -5551236.135 -11327230.490 22195743.564 10 0 59405 34200.00000 0 -2790957.810 -11071290.180 22834582.783 10 0 59405 35100.00000 0 31952.085 -11015198.074 23031116.876 10 0 59405 36000.00000 0 2848320.411 -11163481.855 22781528.873 10 0 59405 36900.00000 0 5589271.593 -11508497.866 22090615.842 10 0 59405 37800.00000 0 8188836.010 -12030755.973 20971699.978 10 0 59405 38700.00000 0 10586440.006 -12699757.585 19446378.208 10 0 59405 39600.00000 0 12729175.710 -13475312.445 17544114.416 10 0 59405 40500.00000 0 14573757.738 -14309279.986 15301681.072 10 0 59405 41400.00000 0 16088086.380 -15147663.253 12762459.772 10 0 59405 42300.00000 0 17252352.670 -15932968.454 9975612.940 10 0 59405 43200.00000 0 18059639.519 -16606731.698 6995141.477 10 0 59405 44100.00000 0 18515993.763 -17112107.005 3878845.565 10 0 59405 45000.00000 0 18639965.883 -17396406.522 687208.129 10 0 59405 45900.00000 0 18461636.511 -17413485.310 -2517777.758 10 0 59405 46800.00000 0 18021170.468 -17125869.116 -5673814.758 10 0 59405 47700.00000 0 17366959.127 -16506533.915 -8719516.561 10 0 59405 48600.00000 0 16553429.609 -15540260.449 -11595608.364 10 0 59405 49500.00000 0 15638613.555 -14224504.664 -14246088.407 10 0 59405 50400.00000 0 14681578.701 -12569745.469 -16619326.950 10 0 59405 51300.00000 0 13739832.414 -10599293.235 -18669080.505 10 0 59405 52200.00000 0 12866807.598 -8348565.362 -20355400.789 10 0 59405 53100.00000 0 12109537.959 -5863857.900 -21645420.003 10 0 59405 54000.00000 0 11506621.446 -3200663.508 -22513996.729 10 0 59405 54900.00000 0 11086558.378 -421605.242 -22944209.578 10 0 59405 55800.00000 0 10866534.797 2405927.985 -22927688.790 10 0 59405 56700.00000 0 10851702.474 5212345.984 -22464779.345 10 0 59405 57600.00000 0 11034985.934 7928515.180 -21564532.451 10 0 59405 58500.00000 0 11397424.302 10488399.077 -20244525.713 10 0 59405 59400.00000 0 11909033.131 12831571.454 -18530515.676 10 0 59405 60300.00000 0 12530149.153 14905497.848 -16455929.752 10 0 59405 61200.00000 0 13213200.459 16667490.557 -14061207.757 10 0 59405 62100.00000 0 13904826.476 18086256.370 -11393006.340 10 0 59405 63000.00000 0 14548257.332 19142973.418 -8503282.255 10 0 59405 63900.00000 0 15085851.211 19831853.429 -5448273.042 10 0 59405 64800.00000 0 15461681.701 20160167.522 -2287395.622 10 0 59405 65700.00000 0 15624065.194 20147736.337 917915.051 10 0 59405 66600.00000 0 15527921.095 19825907.826 4105403.945 10 0 59405 67500.00000 0 15136864.963 19236067.606 7213206.682 10 0 59405 68400.00000 0 14424946.179 18427746.219 10181049.187 10 0 59405 69300.00000 0 13377957.008 17456404.323 12951412.812 10 0 59405 70200.00000 0 11994258.106 16380989.952 15470642.577 10 0 59405 71100.00000 0 10285085.837 15261371.013 17689977.637 10 0 59405 72000.00000 0 8274328.562 14155750.953 19566484.789 10 0 59405 72900.00000 0 5997780.953 13118175.613 21063878.079 10 0 59405 73800.00000 0 3501906.877 12196235.037 22153209.905 10 0 59405 74700.00000 0 842161.581 11429055.544 22813421.408 10 0 59405 75600.00000 0 -1919058.299 10845665.013 23031742.678 10 0 59405 76500.00000 0 -4714753.329 10463798.730 22803935.880 10 0 59405 77400.00000 0 -7475853.048 10289194.999 22134377.082 10 0 59405 78300.00000 0 -10133837.833 10315409.407 21035975.312 10 0 59405 79200.00000 0 -12623343.933 10524155.434 19529930.026 10 0 59405 80100.00000 0 -14884645.184 10886157.340 17645330.948 10 0 59405 81000.00000 0 -16865909.745 11362480.156 15418606.947 10 0 59405 81900.00000 0 -18525139.093 11906281.704 12892833.301 10 0 59405 82800.00000 0 -19831709.082 12464913.870 10116909.477 10 0 59405 83700.00000 0 -20767449.075 12982285.431 7144622.077 10 0 59405 84600.00000 0 -21327213.994 13401387.437 4033610.018 10 0 59405 85500.00000 0 -21518924.960 13666874.745 844251.345 99